| time (UTC) | temp F | wind direction | speed knots | gust knots | rain 1hr in | rain 24hr in | rain mn in | humidity % | barometer mb |
| 20260502225533 | 72 | 83 | 9.6 | 15.6 | 0.00 | 0.00 | 0.12 | 41 | 1016.5 |
| 20260502224853 | 0 | 83 | 9.6 | 7.8 | 0.00 | 0.00 | 0.12 | ||
| 20260502223959 | 0 | 83 | 11.3 | 7.8 | 0.00 | 0.00 | 0.12 | ||
| 20260502222633 | 0 | 83 | 11.3 | 10.4 | 0.00 | 0.00 | 0.12 | ||
| 20260502221245 | 0 | 83 | 11.3 | 11.3 | 0.00 | 0.00 | 0.12 | ||
| 20260502215422 | 0 | 82 | 10.4 | 11.3 | 0.00 | 0.00 | 0.12 | ||
| 20260502213556 | 0 | 81 | 11.3 | 7.8 | 0.00 | 0.00 | 0.12 | ||
| 20260502212446 | 0 | 81 | 11.3 | 13.0 | 0.00 | 0.00 | 0.12 | ||
| 20260502211337 | 72 | 81 | 12.2 | 19.1 | 0.00 | 0.00 | 0.12 | 43 | 1016.1 |
| 20260502210657 | 0 | 81 | 13.0 | 13.0 | 0.00 | 0.00 | 0.12 | ||
| 20260502205803 | 0 | 81 | 13.9 | 12.2 | 0.00 | 0.00 | 0.12 | ||
| 20260502204238 | 0 | 81 | 13.0 | 14.8 | 0.00 | 0.00 | 0.12 | ||
| 20260502203343 | 0 | 81 | 17.4 | 7.8 | 0.00 | 0.00 | 0.12 | ||
| 20260502202233 | 0 | 81 | 11.3 | 13.9 | 0.00 | 0.00 | 0.12 | ||
| 20260502201122 | 0 | 81 | 13.9 | 12.2 | 0.00 | 0.00 | 0.12 | ||
| 20260502195728 | 0 | 80 | 9.6 | 20.0 | 0.00 | 0.00 | 0.12 | ||
| 20260502194549 | 71 | 81 | 10.4 | 28.7 | 0.00 | 0.00 | 0.12 | 50 | 1016.8 |
| 20260502193909 | 71 | 81 | 17.4 | 28.7 | 0.00 | 0.00 | 0.12 | 48 | 1016.8 |
| 20260502193229 | 0 | 81 | 12.2 | 10.4 | 0.00 | 0.00 | 0.12 | ||
| 20260502191620 | 0 | 81 | 13.9 | 15.6 | 0.00 | 0.00 | 0.12 | ||
| 20260502190724 | 71 | 81 | 15.6 | 23.5 | 0.00 | 0.00 | 0.12 | 56 | 1016.9 |
| 20260502190044 | 70 | 81 | 14.8 | 23.5 | 0.00 | 0.00 | 0.12 | 60 | 1016.9 |
| 20260502185404 | 70 | 81 | 15.6 | 27.8 | 0.00 | 0.00 | 0.12 | 60 | 1016.8 |
| 20260502184724 | 70 | 82 | 15.6 | 27.8 | 0.00 | 0.00 | 0.12 | 58 | 1016.8 |
| 20260502184044 | 71 | 81 | 12.2 | 26.1 | 0.00 | 0.00 | 0.12 | 58 | 1016.7 |
| 20260502183404 | 71 | 81 | 13.9 | 23.5 | 0.00 | 0.00 | 0.12 | 60 | 1016.7 |
| 20260502182724 | 71 | 81 | 12.2 | 23.5 | 0.00 | 0.00 | 0.12 | 61 | 1016.6 |
| 20260502182044 | 70 | 81 | 14.8 | 23.5 | 0.00 | 0.00 | 0.12 | 58 | 1016.8 |
| 20260502181404 | 70 | 82 | 10.4 | 25.2 | 0.00 | 0.00 | 0.12 | 60 | 1016.8 |
| 20260502180724 | 0 | 83 | 9.6 | 25.2 | 0.00 | 0.00 | 0.12 | ||
| 20260502162825 | 67 | 82 | 13.0 | 22.6 | 0.00 | 0.00 | 0.12 | 65 | 1017.9 |
| 20260502162145 | 67 | 82 | 11.3 | 24.3 | 0.00 | 0.00 | 0.12 | 65 | 1017.8 |
| 20260502161505 | 0 | 82 | 9.6 | 12.2 | 0.00 | 0.00 | 0.12 | ||
| 20260502160611 | 0 | 83 | 10.4 | 6.1 | 0.00 | 0.00 | 0.12 | ||
| 20260502152117 | 63 | 83 | 10.4 | 16.5 | 0.00 | 0.00 | 0.12 | 77 | 1017.6 |
| 20260502151437 | 0 | 83 | 13.0 | 11.3 | 0.00 | 0.00 | 0.12 | ||
| 20260502150155 | 0 | 83 | 9.6 | 11.3 | 0.00 | 0.00 | 0.12 | ||
| 20260502130405 | 0 | 83 | 10.4 | 7.0 | 0.00 | 0.00 | 0.12 | ||
| 20260502123406 | 55 | 83 | 8.7 | 13.0 | 0.00 | 0.00 | 0.12 | 91 | 1015.8 |
| 20260502122726 | 55 | 83 | 7.8 | 13.9 | 0.00 | 0.00 | 0.12 | 91 | 1015.8 |
| 20260502122046 | 0 | 83 | 7.0 | 7.8 | 0.00 | 0.00 | 0.12 | ||
| 20260502120936 | 54 | 83 | 7.8 | 15.6 | 0.00 | 0.00 | 0.12 | 92 | 1015.7 |
| 20260502120256 | 54 | 83 | 9.6 | 16.5 | 0.00 | 0.00 | 0.12 | 92 | 1015.4 |
| 20260502115616 | 54 | 83 | 11.3 | 16.5 | 0.00 | 0.00 | 0.12 | 92 | 1015.3 |
| 20260502114936 | 0 | 83 | 11.3 | 9.6 | 0.00 | 0.00 | 0.12 | ||
| 20260502114008 | 53 | 83 | 10.4 | 19.1 | 0.00 | 0.00 | 0.12 | 93 | 1015.0 |
| 20260502113328 | 53 | 84 | 7.0 | 16.5 | 0.00 | 0.00 | 0.12 | 94 | 1015.0 |
| 20260502112648 | 53 | 83 | 8.7 | 13.9 | 0.00 | 0.00 | 0.12 | 94 | 1015.1 |
| 20260502112008 | 53 | 83 | 7.0 | 15.6 | 0.00 | 0.00 | 0.12 | 94 | 1015.0 |
| 20260502111328 | 0 | 84 | 7.8 | 13.0 | 0.00 | 0.00 | 0.12 | ||
| 20260502110403 | 0 | 83 | 11.3 | 11.3 | 0.00 | 0.00 | 0.12 | ||
| 20260502104356 | 0 | 83 | 13.9 | 11.3 | 0.00 | 0.00 | 0.12 | ||
| 20260502103502 | 0 | 84 | 13.9 | 16.5 | 0.00 | 0.00 | 0.12 | ||
| 20260502102253 | 53 | 83 | 12.2 | 22.6 | 0.00 | 0.00 | 0.12 | 96 | 1014.4 |
| 20260502100149 | 0 | 84 | 14.8 | 18.2 | 0.00 | 0.00 | 0.12 | ||
| 20260502090824 | 53 | 84 | 12.2 | 20.0 | 0.00 | 0.00 | 0.12 | 96 | 1013.7 |
| 20260502090144 | 53 | 84 | 13.0 | 21.7 | 0.00 | 0.00 | 0.12 | 96 | 1013.5 |
| 20260502071009 | 0 | 84 | 7.8 | 6.1 | 0.00 | 0.00 | 0.11 | ||
| 20260502070113 | 53 | 84 | 7.8 | 11.3 | 0.00 | 0.00 | 0.11 | 96 | 1013.8 |
| 20260502065433 | 0 | 84 | 6.1 | 4.3 | 0.00 | 0.00 | 0.11 | ||
| 20260502064538 | 53 | 84 | 7.8 | 19.1 | 0.00 | 0.00 | 0.11 | 96 | 1013.9 |
| 20260502063858 | 53 | 84 | 12.2 | 24.3 | 0.00 | 0.00 | 0.11 | 96 | 1013.0 |
| 20260502063218 | 53 | 84 | 15.6 | 24.3 | 0.00 | 0.00 | 0.11 | 96 | 1013.1 |
| 20260502062538 | 0 | 84 | 14.8 | 19.1 | 0.00 | 0.00 | 0.11 | ||
| 20260502060750 | 0 | 84 | 13.0 | 7.8 | 0.00 | 0.00 | 0.10 | ||
| 20260502055856 | 0 | 85 | 12.2 | 12.2 | 0.00 | 0.00 | 0.05 | ||
| 20260502054750 | 54 | 83 | 6.1 | 18.2 | 0.00 | 0.00 | 0.00 | 97 | 1014.8 |
| 20260502054110 | 54 | 85 | 7.8 | 13.0 | 0.00 | 0.00 | 0.00 | 97 | 1014.9 |
| 20260502053430 | 0 | 85 | 7.0 | 9.6 | 0.00 | 0.00 | 0.00 | ||
| 20260502052248 | 0 | 84 | 7.8 | 5.2 | 0.00 | 0.00 | 0.00 | ||
| 20260502050901 | 0 | 85 | 11.3 | 7.0 | 0.00 | 0.00 | 0.00 | ||
| 20260502050000 | 55 | 84 | 12.2 | 18.2 | 0.00 | 0.00 | 2.32 | 97 | 1013.1 |
| 20260502045320 | 0 | 85 | 7.0 | 10.4 | 0.00 | 0.00 | 2.32 | ||
| 20260502043954 | 55 | 85 | 7.0 | 15.6 | 0.00 | 0.00 | 2.32 | 97 | 1013.7 |
| 20260502043314 | 0 | 85 | 8.7 | 10.4 | 0.00 | 0.00 | 2.31 | ||
| 20260502042421 | 0 | 84 | 12.2 | 13.0 | 0.00 | 0.00 | 2.29 | ||
| 20260502041527 | 0 | 85 | 7.8 | 4.3 | 0.00 | 0.00 | 2.25 | ||
| 20260502040418 | 56 | 85 | 13.0 | 21.7 | 0.00 | 0.00 | 2.25 | 97 | 1012.9 |
| 20260502035738 | 56 | 84 | 12.2 | 17.4 | 0.00 | 0.00 | 2.25 | 97 | 1012.7 |
| 20260502035058 | 0 | 85 | 13.0 | 13.9 | 0.00 | 0.00 | 2.24 | ||
| 20260502034204 | 0 | 84 | 13.0 | 13.0 | 0.00 | 0.00 | 2.18 | ||
| 20260502033105 | 56 | 84 | 11.3 | 21.7 | 0.00 | 0.00 | 2.12 | 97 | 1012.9 |
| 20260502032425 | 0 | 84 | 14.8 | 20.9 | 0.00 | 0.00 | 2.11 | ||
| 20260502030955 | 57 | 85 | 11.3 | 18.2 | 0.00 | 0.00 | 2.11 | 96 | 1012.9 |
| 20260502030315 | 58 | 85 | 10.4 | 18.2 | 0.00 | 0.00 | 2.11 | 97 | 1013.1 |
| 20260502025635 | 0 | 84 | 8.7 | 9.6 | 0.00 | 0.00 | 2.11 | ||
| 20260502024745 | 0 | 85 | 9.6 | 10.4 | 0.00 | 0.00 | 2.09 | ||
| 20260502023846 | 0 | 84 | 9.6 | 12.2 | 0.00 | 0.00 | 2.09 | ||
| 20260502022953 | 0 | 84 | 10.4 | 16.5 | 0.00 | 0.00 | 2.09 | ||
| 20260502022059 | 0 | 84 | 10.4 | 12.2 | 0.00 | 0.00 | 2.09 | ||
| 20260502021204 | 58 | 85 | 12.2 | 19.1 | 0.00 | 0.00 | 2.09 | 97 | 1012.1 |
| 20260502020524 | 0 | 84 | 7.0 | 10.4 | 0.00 | 0.00 | 2.09 | ||
| 20260502014836 | 57 | 85 | 7.0 | 13.9 | 0.00 | 0.00 | 2.09 | 97 | 1011.9 |
| 20260502014156 | 0 | 85 | 7.8 | 8.7 | 0.00 | 0.00 | 2.09 | ||
| 20260502013046 | 0 | 85 | 4.3 | 3.5 | 0.00 | 0.00 | 2.09 | ||
| 20260502010614 | 0 | 84 | 11.3 | 12.2 | 0.00 | 0.00 | 2.09 | ||
| 20260502005505 | 55 | 84 | 7.8 | 19.1 | 0.00 | 0.00 | 2.09 | 96 | 1011.1 |
| 20260502004825 | 0 | 84 | 7.8 | 6.1 | 0.00 | 0.00 | 2.09 | ||
| 20260502003714 | 56 | 84 | 11.3 | 18.2 | 0.00 | 0.00 | 2.09 | 96 | 1011.9 |
| 20260502003034 | 0 | 84 | 12.2 | 16.5 | 0.00 | 0.00 | 2.09 | ||
| 20260502002141 | 0 | 85 | 12.2 | 11.3 | 0.00 | 0.00 | 2.07 | ||
| 20260502001245 | 56 | 84 | 10.4 | 17.4 | 0.00 | 0.00 | 2.07 | 96 | 1012.1 |
| 20260502000605 | 0 | 85 | 9.6 | 12.2 | 0.00 | 0.00 | 2.07 | ||
| 20260501235459 | 57 | 84 | 12.2 | 18.2 | 0.00 | 0.00 | 2.07 | 96 | 1011.8 |
| 20260501234819 | 57 | 84 | 10.4 | 20.0 | 0.00 | 0.00 | 2.07 | 96 | 1011.6 |
| 20260501234139 | 0 | 84 | 10.4 | 13.9 | 0.00 | 0.00 | 2.06 | ||
| 20260501233212 | 57 | 84 | 9.6 | 17.4 | 0.00 | 0.00 | 2.06 | 96 | 1011.5 |
| 20260501232532 | 0 | 85 | 12.2 | 9.6 | 0.00 | 0.00 | 2.06 | ||
| 20260501231638 | 57 | 84 | 13.0 | 18.2 | 0.00 | 0.00 | 2.06 | 96 | 1011.7 |
| 20260501230958 | 0 | 85 | 13.0 | 13.0 | 0.00 | 0.00 | 2.05 | ||
| 20260501230556 | 0 | 84 | 12.2 | 12.2 | 0.00 | 0.00 | 2.05 |